EN

Hourly Weather Crosby

Today, 15 January, Friday

Time Temperature Precipitation Wind Pressure Humidity
00:00 +1°C° 0 mm 2 mps 769 mmHg 93%
01:00 +1°C° 0 mm 2 mps 770 mmHg 93%
02:00 +1°C° 0 mm 2 mps 770 mmHg 92%
03:00 +1°C° 0 mm 1 mps 770 mmHg 92%
04:00 -1°C° 0 mm 2 mps 770 mmHg 92%
05:00 -1°C° 0 mm 2 mps 771 mmHg 92%
06:00 -1°C° 0 mm 3 mps 771 mmHg 94%
07:00 -1°C° 0 mm 3 mps 771 mmHg 93%
08:00 -1°C° 0 mm 3 mps 771 mmHg 93%
09:00 -1°C° 0 mm 3 mps 772 mmHg 92%
10:00 0°C° 0 mm 3 mps 772 mmHg 89%
11:00 0°C° 0 mm 4 mps 771 mmHg 86%
12:00 0°C° 0 mm 5 mps 771 mmHg 82%
13:00 +1°C° 0 mm 5 mps 771 mmHg 83%
14:00 +1°C° 0 mm 5 mps 770 mmHg 83%
15:00 +1°C° 0 mm 5 mps 770 mmHg 83%
16:00 0°C° 0 mm 5 mps 770 mmHg 84%
17:00 0°C° 0 mm 5 mps 769 mmHg 86%
18:00 0°C° 0 mm 5 mps 769 mmHg 88%
19:00 0°C° 0 mm 5 mps 769 mmHg 87%
20:00 0°C° 0 mm 5 mps 768 mmHg 86%
21:00 -1°C° 0 mm 6 mps 768 mmHg 85%
22:00 -1°C° 0 mm 6 mps 767 mmHg 85%
23:00 0°C° 0 mm 7 mps 766 mmHg 85%

Tomorrow, 16 January, Saturday

Time Temperature Precipitation Wind Pressure Humidity
00:00 0°C° 0 mm 7 mps 765 mmHg 85%
01:00 0°C° 1.5 mm 8 mps 764 mmHg 87%
02:00 0°C° 1.5 mm 8 mps 762 mmHg 89%
03:00 +1°C° 1.5 mm 9 mps 761 mmHg 90%
04:00 +1°C° 1.1 mm 9 mps 760 mmHg 91%
05:00 +2°C° 1.1 mm 8 mps 759 mmHg 91%
06:00 +2°C° 1.1 mm 8 mps 759 mmHg 91%
07:00 +4°C° 0.9 mm 7 mps 758 mmHg 92%
08:00 +4°C° 0.9 mm 6 mps 758 mmHg 94%
09:00 +5°C° 0.9 mm 5 mps 758 mmHg 95%
10:00 +5°C° 0 mm 6 mps 759 mmHg 91%
11:00 +5°C° 0 mm 6 mps 759 mmHg 87%
12:00 +6°C° 0 mm 7 mps 760 mmHg 83%
13:00 +7°C° 0 mm 6 mps 760 mmHg 83%
14:00 +5°C° 0 mm 6 mps 760 mmHg 82%
15:00 +5°C° 0 mm 6 mps 761 mmHg 81%
16:00 +5°C° 0 mm 6 mps 761 mmHg 82%
17:00 +4°C° 0 mm 6 mps 762 mmHg 83%
18:00 +3°C° 0 mm 6 mps 762 mmHg 83%
19:00 +3°C° 0 mm 6 mps 762 mmHg 82%
20:00 +5°C° 0 mm 5 mps 763 mmHg 80%
21:00 +5°C° 0 mm 5 mps 763 mmHg 79%
22:00 +3°C° 0.1 mm 6 mps 763 mmHg 79%
23:00 +3°C° 0.1 mm 6 mps 763 mmHg 79%

Day after tomorrow, 17 January, Sunday

Time Temperature Precipitation Wind Pressure Humidity
00:00 +3°C° 0.1 mm 7 mps 763 mmHg 79%
01:00 +3°C° 0.2 mm 7 mps 763 mmHg 80%
02:00 +3°C° 0.2 mm 7 mps 763 mmHg 80%
03:00 +3°C° 0.2 mm 7 mps 764 mmHg 81%
04:00 +3°C° 0.1 mm 6 mps 764 mmHg 81%
05:00 +3°C° 0.1 mm 6 mps 764 mmHg 82%
06:00 +3°C° 0.1 mm 5 mps 764 mmHg 82%
07:00 +3°C° 0 mm 5 mps 765 mmHg 83%
08:00 +3°C° 0 mm 5 mps 765 mmHg 84%
09:00 +3°C° 0 mm 5 mps 766 mmHg 85%
10:00 +3°C° 0 mm 5 mps 766 mmHg 83%
11:00 +5°C° 0 mm 5 mps 766 mmHg 81%
12:00 +6°C° 0 mm 5 mps 767 mmHg 78%
13:00 +6°C° 0 mm 5 mps 766 mmHg 78%
14:00 +6°C° 0 mm 5 mps 766 mmHg 79%
15:00 +5°C° 0 mm 5 mps 766 mmHg 79%
16:00 +5°C° 0 mm 5 mps 766 mmHg 81%
17:00 +5°C° 0 mm 5 mps 767 mmHg 83%
18:00 +3°C° 0 mm 5 mps 767 mmHg 85%
19:00 +3°C° 0.1 mm 5 mps 767 mmHg 86%
20:00 +3°C° 0.1 mm 5 mps 767 mmHg 88%
21:00 +2°C° 0.1 mm 5 mps 767 mmHg 89%
22:00 +2°C° 0 mm 5 mps 767 mmHg 90%
23:00 +2°C° 0 mm 5 mps 767 mmHg 90%

18 January, Monday

Time Temperature Precipitation Wind Pressure Humidity
00:00 +3°C° 0 mm 4 mps 767 mmHg 91%
01:00 +3°C° 0 mm 4 mps 766 mmHg 91%
02:00 +3°C° 0 mm 4 mps 766 mmHg 91%
03:00 +1°C° 0 mm 4 mps 766 mmHg 92%
04:00 +1°C° 0 mm 4 mps 766 mmHg 92%
05:00 +1°C° 0 mm 4 mps 766 mmHg 91%
06:00 +1°C° 0 mm 4 mps 765 mmHg 91%
07:00 +1°C° 0 mm 4 mps 765 mmHg 91%
08:00 +1°C° 0 mm 4 mps 765 mmHg 90%
09:00 +1°C° 0 mm 4 mps 765 mmHg 89%
10:00 +3°C° 0 mm 4 mps 764 mmHg 86%
11:00 +4°C° 0 mm 4 mps 764 mmHg 83%
12:00 +4°C° 0 mm 4 mps 764 mmHg 80%
13:00 +4°C° 0 mm 4 mps 763 mmHg 80%
14:00 +4°C° 0 mm 4 mps 762 mmHg 80%
15:00 +5°C° 0 mm 5 mps 761 mmHg 79%
16:00 +3°C° 0.2 mm 5 mps 760 mmHg 82%
17:00 +3°C° 0.2 mm 6 mps 759 mmHg 84%
18:00 +3°C° 0.2 mm 6 mps 758 mmHg 87%
19:00 +3°C° 1.4 mm 7 mps 757 mmHg 88%
20:00 +4°C° 1.4 mm 8 mps 755 mmHg 90%
21:00 +3°C° 1.4 mm 9 mps 754 mmHg 91%
22:00 +5°C° 1.5 mm 8 mps 753 mmHg 92%
23:00 +6°C° 1.5 mm 8 mps 752 mmHg 93%

19 January, Tuesday

Time Temperature Precipitation Wind Pressure Humidity
00:00 +8°C° 1.5 mm 7 mps 751 mmHg 93%
01:00 +9°C° 0.9 mm 8 mps 750 mmHg 92%
02:00 +9°C° 0.9 mm 8 mps 750 mmHg 91%
03:00 +8°C° 0.9 mm 9 mps 749 mmHg 90%
04:00 +8°C° 0.1 mm 9 mps 749 mmHg 89%
05:00 +8°C° 0.1 mm 9 mps 749 mmHg 87%
06:00 +8°C° 0.1 mm 9 mps 748 mmHg 86%
07:00 +9°C° 0.2 mm 8 mps 748 mmHg 85%
08:00 +9°C° 0.2 mm 8 mps 747 mmHg 85%
09:00 +9°C° 0.2 mm 7 mps 747 mmHg 85%
10:00 +9°C° 0.3 mm 7 mps 746 mmHg 85%
11:00 +9°C° 0.3 mm 7 mps 746 mmHg 85%
12:00 +9°C° 0.3 mm 7 mps 745 mmHg 85%
13:00 +9°C° 0.3 mm 7 mps 744 mmHg 85%
14:00 +9°C° 0.3 mm 7 mps 743 mmHg 85%
15:00 +10°C° 0.3 mm 7 mps 742 mmHg 85%
16:00 +10°C° 0.6 mm 7 mps 741 mmHg 86%
17:00 +9°C° 0.6 mm 7 mps 740 mmHg 87%
18:00 +9°C° 0.6 mm 7 mps 740 mmHg 89%
19:00 +9°C° 0.8 mm 7 mps 739 mmHg 88%
20:00 +10°C° 0.8 mm 7 mps 738 mmHg 88%
21:00 +10°C° 0.8 mm 8 mps 737 mmHg 88%
22:00 +10°C° 1.3 mm 8 mps 736 mmHg 88%
23:00 +9°C° 1.3 mm 8 mps 735 mmHg 88%

20 January, Wednesday

Time Temperature Precipitation Wind Pressure Humidity
00:00 +9°C° 1.3 mm 8 mps 734 mmHg 88%
01:00 +9°C° 0.4 mm 8 mps 734 mmHg 86%
02:00 +9°C° 0.4 mm 8 mps 734 mmHg 85%
03:00 +9°C° 0.4 mm 7 mps 733 mmHg 83%
04:00 +7°C° 0.2 mm 8 mps 734 mmHg 84%
05:00 +6°C° 0.2 mm 8 mps 734 mmHg 85%
06:00 +5°C° 0.2 mm 9 mps 735 mmHg 86%
07:00 +3°C° 0.4 mm 9 mps 736 mmHg 86%
08:00 +3°C° 0.4 mm 9 mps 736 mmHg 86%
09:00 +2°C° 0.4 mm 9 mps 737 mmHg 86%
10:00 +2°C° 0.3 mm 9 mps 738 mmHg 82%
11:00 +3°C° 0.3 mm 9 mps 738 mmHg 78%
12:00 +3°C° 0.3 mm 9 mps 738 mmHg 74%
13:00 +3°C° 0.2 mm 9 mps 738 mmHg 74%
14:00 +3°C° 0.2 mm 9 mps 738 mmHg 73%
15:00 +3°C° 0.2 mm 9 mps 738 mmHg 73%
16:00 +3°C° 0.2 mm 9 mps 739 mmHg 74%
17:00 +2°C° 0.2 mm 9 mps 739 mmHg 75%
18:00 +2°C° 0.2 mm 9 mps 739 mmHg 77%
19:00 +2°C° 0.3 mm 8 mps 739 mmHg 76%
20:00 +2°C° 0.3 mm 8 mps 740 mmHg 74%
21:00 +2°C° 0.3 mm 8 mps 740 mmHg 73%
22:00 +2°C° 0.3 mm 8 mps 740 mmHg 75%
23:00 +2°C° 0.3 mm 9 mps 741 mmHg 76%
Show more